Tracking 29892 objects as of 21-Nov-2024
HD Live streaming from Space Station
objects crossing your sky now

CZ-6A DEB

Track CZ-6A DEB now!
10-day predictions


NORAD ID: 54566
Int'l Code: 2022-151LS
Perigee: 835.1 km
Apogee: 916.1 km
Inclination: 98.8 °
Period: 102.3 minutes
Semi major axis: 7246 km
RCS: Unknown
Launch date: November 11, 2022
Source: People's Republic of China (PRC)
Launch site: Taiyaun Space Center, China (TSC)

Note: This is SATELLITE DEBRIS
Your satellite tracking list
Your tracking list is empty




NASA's NSSDC Master Catalog

Two Line Element Set (TLE):
1 54566U 22151LS  24325.93877759  .00000552  00000-0  34935-3 0  9997
2 54566  98.8239 322.1727 0055941 164.8917 195.3939 14.07345399103784
Source of the keplerian elements: AFSPC